User: anonymous   Login
Location: Peebles
(55.6412°N, 3.1714°W)
Time: 23:15:37
(UTC+00:00)
Language:

SPOT 1/Viking Rocket - Orbit

View from above orbital plane
View from above orbital plane
View from above satellite
View from above satellite

Ground track
Ground track

The orbit data is extracted from the following two-line orbital elements,

1 16615U 86019C   21331.39310051  .00000042  00000-0  31407-4 0  9990
2 16615  98.4097  28.5482 0010623 290.1045  80.5613 14.31875247871832
Epoch (UTC): 27 November 2021 09:26:03
Eccentricity: 0.0010623
inclination: 98.4097°
perigee height: 778 km
apogee height: 793 km
right ascension of ascending node: 28.5482°
argument of perigee: 290.1045°
revolutions per day: 14.31875247
mean anomaly at epoch: 80.5613°
orbit number at epoch: 87183

The dashed part of the orbit path shows where the satellite is in the earth's shadow,  

DLR